Location: Humble ISD Astronomical Observatory
(29.9680°N, 95.2620°W)
Time: 12:46:56
(UTC-05:00)

Envisat - Visible Passes

Search period start: 20 March 2019 00:00
Search period end: 30 March 2019 00:00
Orbit: 764 x 766 km, 98.2° (Epoch: 19 March)

Date Brightness Start Highest point End Pass type
(mag) Time Alt. Az. Time Alt. Az. Time Alt. Az.
20 Mar 3.0 19:50:39 10° SSE 19:55:38 61° ENE 20:00:37 10° N visible
20 Mar 6.2 21:33:46 10° WSW 21:34:55 11° W 21:36:05 10° W visible
21 Mar 5.1 20:53:38 10° SSW 20:57:56 28° W 21:02:15 10° NW visible
22 Mar 3.3 20:16:04 10° S 20:21:06 71° WSW 20:26:11 10° NNW visible
23 Mar 5.9 21:20:52 10° SW 21:23:37 15° W 21:26:23 10° WNW visible
24 Mar 4.6 20:42:02 10° SSW 20:46:41 36° W 20:51:21 10° NNW visible
25 Mar 3.0 20:04:50 10° SSE 20:09:54 88° ENE 20:15:00 10° NNW visible
26 Mar 5.6 21:08:45 10° SW 21:12:20 19° W 21:15:55 10° NW visible
27 Mar 4.1 20:30:34 10° S 20:35:26 48° W 20:40:20 10° NNW visible
28 Mar 3.0 19:53:41 10° SSE 19:58:43 68° ENE 20:03:45 10° N visible
29 Mar 5.2 20:56:55 10° SSW 21:01:03 25° W 21:05:13 10° NW visible
